Location: Kawakawa
(35.3830°S, 174.0670°E)
Time: 17:52:02
(UTC+13:00)

HJ-1C - Pass Details

Date: 24 January 2019
Orbit: 435 x 449 km, 97.2° (Epoch: 18 October)

Event Time Altitude Azimuth Distance (km) Brightness Sun altitude
Rises 09:43:47 0° 326° (NW) 2,459 6.9 36.9°
Reaches altitude 10° 09:47:30 10° 283° (WNW) 1,605 5.8 37.6°
Drops below altitude 10° 09:48:47 10° 261° (W) 1,611 5.8 37.9°
Enters shadow 10:26:36 -70° 146° (SE) 12,443 10.3 45.6°
Exits shadow 10:42:38 -71° 29° (NNE) 12,518 10.3 48.8°
Maximum altitude 21:11:48 56° 80° (E) 542 3.5 -7.0°
Sets 21:17:07 0° 356° (N) 2,422 6.8 -8.0°
